THY7BK LTFM-LTAC

Flight info

Callsign THY7BK
Flight time 0h 40m
Altitude 27000
Route VICEN T380 ASMAP L333 LATGA
Aircraft A321/M-SDE3FGHIRWY/LB1

Departure

Time 2026-05-06 06:33
Airport İstanbul Airport (LTFM)

Arrival

Time 2026-05-06 07:14
Airport Esenboğa International Airport (LTAC)
Time Latitude Longitude Altitude Speed Heading
2026-05-06 06:18 41.26167 28.74883 334 ft 0 kts 251°
2026-05-06 06:24 41.26172 28.74899 334 ft 2 kts 251°
2026-05-06 06:24 41.26176 28.74918 334 ft 2 kts 251°
2026-05-06 06:25 41.26181 28.74937 334 ft 2 kts 251°
2026-05-06 06:25 41.26183 28.74957 334 ft 2 kts 283°
2026-05-06 06:25 41.26166 28.74989 334 ft 2 kts 333°
2026-05-06 06:26 41.26159 28.74993 334 ft 1 kts 346°
2026-05-06 06:26 41.26156 28.74995 334 ft 0 kts 342°
2026-05-06 06:29 41.26157 28.74994 334 ft 0 kts 342°
2026-05-06 06:30 41.26170 28.74989 334 ft 2 kts 343°
2026-05-06 06:30 41.26194 28.74989 334 ft 4 kts 13°
2026-05-06 06:30 41.26221 28.75017 334 ft 5 kts 59°
2026-05-06 06:30 41.26228 28.75075 334 ft 7 kts 90°
2026-05-06 06:31 41.26229 28.75150 334 ft 8 kts 89°
2026-05-06 06:31 41.26230 28.75237 334 ft 10 kts 89°
2026-05-06 06:31 41.26231 28.75336 334 ft 11 kts 90°
2026-05-06 06:31 41.26232 28.75445 334 ft 12 kts 89°
2026-05-06 06:32 41.26233 28.75564 334 ft 13 kts 89°
2026-05-06 06:32 41.26268 28.75668 334 ft 13 kts 15°
2026-05-06 06:32 41.26437 28.75668 334 ft 51 kts 359°
2026-05-06 06:32 41.27067 28.75655 334 ft 124 kts 360°
2026-05-06 06:33 41.28097 28.75643 559 ft 158 kts 360°
2026-05-06 06:33 41.29194 28.75623 1163 ft 160 kts
2026-05-06 06:33 41.30239 28.76070 1839 ft 160 kts 34°
2026-05-06 06:33 41.31134 28.76989 2363 ft 168 kts 34°
2026-05-06 06:34 41.32140 28.77877 2776 ft 183 kts 30°
2026-05-06 06:34 41.33285 28.78788 3210 ft 199 kts 28°
2026-05-06 06:34 41.34532 28.79729 3645 ft 216 kts 27°
2026-05-06 06:34 41.35935 28.80763 4002 ft 239 kts 27°
2026-05-06 06:35 41.37367 28.81988 4508 ft 258 kts 42°
2026-05-06 06:35 41.38298 28.84077 5296 ft 271 kts 71°
2026-05-06 06:35 41.38465 28.86546 6225 ft 275 kts 85°
2026-05-06 06:35 41.38449 28.89078 7066 ft 278 kts 88°
2026-05-06 06:36 41.38020 28.91633 7856 ft 291 kts 112°
2026-05-06 06:36 41.36747 28.93721 8674 ft 301 kts 140°
2026-05-06 06:36 41.34837 28.94880 9452 ft 309 kts 168°
2026-05-06 06:36 41.32688 28.94929 10198 ft 313 kts 183°
2026-05-06 06:37 41.30489 28.94813 10681 ft 326 kts 180°
2026-05-06 06:37 41.28146 28.94817 11029 ft 343 kts 179°
2026-05-06 06:37 41.25738 28.94847 11480 ft 356 kts 180°
2026-05-06 06:37 41.23255 28.94702 12165 ft 360 kts 184°
2026-05-06 06:38 41.20727 28.94478 12862 ft 363 kts 184°
2026-05-06 06:38 41.18210 28.94239 13528 ft 367 kts 184°
2026-05-06 06:38 41.15641 28.93994 14176 ft 371 kts 184°
2026-05-06 06:38 41.13055 28.93749 14823 ft 375 kts 184°
2026-05-06 06:39 41.10460 28.93506 15474 ft 378 kts 184°
2026-05-06 06:39 41.07833 28.93261 16125 ft 381 kts 184°
2026-05-06 06:39 41.05164 28.93017 16768 ft 383 kts 183°
2026-05-06 06:39 41.02541 28.93300 17326 ft 386 kts 163°
2026-05-06 06:40 41.00157 28.94868 17928 ft 383 kts 140°
2026-05-06 06:40 40.98227 28.97271 18549 ft 382 kts 131°
2026-05-06 06:40 40.96400 28.99768 19087 ft 386 kts 131°
2026-05-06 06:40 40.94499 29.02354 19617 ft 390 kts 131°
2026-05-06 06:41 40.92582 29.04909 20147 ft 393 kts 132°
2026-05-06 06:41 40.90639 29.07455 20674 ft 396 kts 133°
2026-05-06 06:41 40.88692 29.09985 21189 ft 399 kts 133°
2026-05-06 06:41 40.86697 29.12577 21710 ft 401 kts 132°
2026-05-06 06:42 40.84963 29.15432 22165 ft 401 kts 120°
2026-05-06 06:42 40.83739 29.18707 22624 ft 399 kts 107°
2026-05-06 06:42 40.82965 29.22230 23101 ft 400 kts 101°
2026-05-06 06:42 40.82297 29.25820 23541 ft 403 kts 100°
2026-05-06 06:43 40.81639 29.29365 23961 ft 407 kts 101°
2026-05-06 06:43 40.80925 29.33085 24167 ft 416 kts 101°
2026-05-06 06:43 40.80196 29.36791 24466 ft 422 kts 102°
2026-05-06 06:43 40.79451 29.40529 24881 ft 425 kts 102°
2026-05-06 06:44 40.78698 29.44298 25292 ft 428 kts 102°
2026-05-06 06:44 40.77932 29.48124 25701 ft 430 kts 102°
2026-05-06 06:44 40.77174 29.51906 26088 ft 433 kts 102°
2026-05-06 06:44 40.76402 29.55750 26467 ft 436 kts 102°
2026-05-06 06:45 40.75622 29.59631 26842 ft 438 kts 102°
2026-05-06 06:45 40.74845 29.63487 27071 ft 441 kts 102°
2026-05-06 06:45 40.74110 29.67413 27071 ft 439 kts 99°
2026-05-06 06:45 40.73601 29.71353 27073 ft 437 kts 95°
2026-05-06 06:46 40.73334 29.75316 27073 ft 435 kts 90°
2026-05-06 06:46 40.73243 29.79248 27074 ft 434 kts 88°
2026-05-06 06:46 40.73184 29.83239 27072 ft 434 kts 88°
2026-05-06 06:46 40.73128 29.87195 27074 ft 434 kts 88°
2026-05-06 06:47 40.73065 29.91195 27076 ft 435 kts 88°
2026-05-06 06:47 40.72995 29.95109 27076 ft 435 kts 88°
2026-05-06 06:47 40.72918 29.99126 27076 ft 435 kts 88°
2026-05-06 06:47 40.72786 30.03081 27072 ft 437 kts 92°
2026-05-06 06:48 40.72371 30.07046 27074 ft 439 kts 98°
2026-05-06 06:48 40.71645 30.10920 27076 ft 441 kts 104°
2026-05-06 06:48 40.70679 30.14752 27076 ft 442 kts 106°
2026-05-06 06:48 40.69650 30.18572 27081 ft 442 kts 107°
2026-05-06 06:49 40.68621 30.22380 27073 ft 442 kts 106°
2026-05-06 06:49 40.67625 30.26199 27075 ft 441 kts 104°
2026-05-06 06:49 40.66819 30.30076 27075 ft 439 kts 99°
2026-05-06 06:49 40.66242 30.34022 27077 ft 438 kts 95°
2026-05-06 06:50 40.65874 30.37934 27080 ft 437 kts 92°
2026-05-06 06:50 40.65552 30.41939 27077 ft 437 kts 92°
2026-05-06 06:50 40.65241 30.45891 27076 ft 437 kts 92°
2026-05-06 06:50 40.64925 30.49831 27077 ft 438 kts 92°
2026-05-06 06:51 40.64599 30.53801 27078 ft 438 kts 92°
2026-05-06 06:51 40.64265 30.57802 27072 ft 438 kts 92°
2026-05-06 06:51 40.63932 30.61751 27071 ft 438 kts 92°
2026-05-06 06:51 40.63596 30.65730 27068 ft 438 kts 93°
2026-05-06 06:52 40.63169 30.69720 27066 ft 440 kts 96°
2026-05-06 06:52 40.62575 30.73625 27065 ft 441 kts 99°
2026-05-06 06:52 40.61803 30.77552 27061 ft 442 kts 102°
2026-05-06 06:52 40.60983 30.81429 27059 ft 442 kts 102°
2026-05-06 06:53 40.60147 30.85342 27056 ft 443 kts 102°
2026-05-06 06:53 40.59320 30.89218 27058 ft 443 kts 102°
2026-05-06 06:53 40.58493 30.93096 27058 ft 443 kts 102°
2026-05-06 06:53 40.57668 30.96971 27055 ft 443 kts 102°
2026-05-06 06:54 40.56836 31.00874 27058 ft 443 kts 102°
2026-05-06 06:54 40.56009 31.04755 27060 ft 444 kts 102°
2026-05-06 06:54 40.55172 31.08676 27057 ft 444 kts 102°
2026-05-06 06:54 40.54341 31.12563 27056 ft 444 kts 102°
2026-05-06 06:55 40.53503 31.16465 27055 ft 444 kts 102°
2026-05-06 06:55 40.52668 31.20351 27054 ft 444 kts 102°
2026-05-06 06:55 40.51830 31.24242 27054 ft 444 kts 102°
2026-05-06 06:55 40.50995 31.28104 27050 ft 444 kts 102°
2026-05-06 06:56 40.50145 31.32033 27045 ft 444 kts 102°
2026-05-06 06:56 40.49308 31.35894 27046 ft 443 kts 102°
2026-05-06 06:56 40.48467 31.39767 27040 ft 443 kts 102°
2026-05-06 06:56 40.47615 31.43683 27036 ft 443 kts 102°
2026-05-06 06:57 40.46775 31.47531 27034 ft 444 kts 102°
2026-05-06 06:57 40.45927 31.51420 27030 ft 443 kts 102°
2026-05-06 06:57 40.45083 31.55280 27027 ft 444 kts 102°
2026-05-06 06:57 40.44225 31.59207 27017 ft 444 kts 102°
2026-05-06 06:58 40.43375 31.63084 26603 ft 445 kts 102°
2026-05-06 06:58 40.42525 31.66970 25679 ft 450 kts 103°
2026-05-06 06:58 40.41665 31.70889 24982 ft 448 kts 103°
2026-05-06 06:58 40.40812 31.74765 24428 ft 443 kts 103°
2026-05-06 06:59 40.39958 31.78628 23900 ft 437 kts 103°
2026-05-06 06:59 40.39129 31.82379 23395 ft 431 kts 103°
2026-05-06 06:59 40.38296 31.86135 22898 ft 426 kts 103°
2026-05-06 06:59 40.37475 31.89838 22399 ft 421 kts 103°
2026-05-06 07:00 40.36668 31.93468 21752 ft 418 kts 103°
2026-05-06 07:00 40.35858 31.97112 20713 ft 418 kts 103°
2026-05-06 07:00 40.35047 32.00735 19573 ft 413 kts 104°
2026-05-06 07:00 40.34252 32.04271 18452 ft 408 kts 104°
2026-05-06 07:01 40.33381 32.07749 17329 ft 403 kts 109°
2026-05-06 07:01 40.32220 32.11039 16271 ft 397 kts 117°
2026-05-06 07:01 40.30833 32.14066 15604 ft 384 kts 121°
2026-05-06 07:01 40.29406 32.16991 15074 ft 374 kts 121°
2026-05-06 07:02 40.28021 32.19807 14592 ft 370 kts 121°
2026-05-06 07:02 40.26648 32.22603 14124 ft 367 kts 121°
2026-05-06 07:02 40.25274 32.25407 13659 ft 364 kts 121°
2026-05-06 07:02 40.23922 32.28177 13221 ft 361 kts 121°
2026-05-06 07:03 40.22572 32.30940 12761 ft 359 kts 121°
2026-05-06 07:03 40.21223 32.33699 12283 ft 358 kts 121°
2026-05-06 07:03 40.19900 32.36405 11817 ft 356 kts 121°
2026-05-06 07:03 40.18576 32.39113 11348 ft 354 kts 121°
2026-05-06 07:04 40.17252 32.41822 10879 ft 352 kts 121°
2026-05-06 07:04 40.15944 32.44493 10496 ft 346 kts 121°
2026-05-06 07:04 40.14676 32.47079 10263 ft 334 kts 121°
2026-05-06 07:04 40.13465 32.49549 10144 ft 308 kts 121°
2026-05-06 07:05 40.12367 32.51786 10005 ft 286 kts 122°
2026-05-06 07:05 40.11312 32.53941 9880 ft 275 kts 122°
2026-05-06 07:05 40.10286 32.56032 9591 ft 273 kts 122°
2026-05-06 07:05 40.09275 32.58084 9261 ft 271 kts 122°
2026-05-06 07:06 40.08266 32.60136 8922 ft 270 kts 121°
2026-05-06 07:06 40.07435 32.62306 8548 ft 269 kts 110°
2026-05-06 07:06 40.06899 32.64575 8195 ft 268 kts 103°
2026-05-06 07:06 40.06481 32.66869 8107 ft 255 kts 103°
2026-05-06 07:07 40.06100 32.69047 8073 ft 241 kts 103°
2026-05-06 07:07 40.05727 32.71148 8024 ft 230 kts 105°
2026-05-06 07:07 40.05163 32.73035 7937 ft 222 kts 119°
2026-05-06 07:07 40.04316 32.74692 7716 ft 219 kts 126°
2026-05-06 07:08 40.03428 32.76250 7544 ft 213 kts 126°
2026-05-06 07:08 40.02560 32.77759 7259 ft 207 kts 126°
2026-05-06 07:08 40.01729 32.79218 6918 ft 203 kts 126°
2026-05-06 07:08 40.00911 32.80668 6533 ft 197 kts 125°
2026-05-06 07:09 40.00138 32.82044 6226 ft 196 kts 125°
2026-05-06 07:09 39.99367 32.83420 5933 ft 188 kts 124°
2026-05-06 07:09 39.98869 32.84851 5634 ft 177 kts 97°
2026-05-06 07:09 39.99093 32.86345 5407 ft 169 kts 58°
2026-05-06 07:10 39.99911 32.87454 5490 ft 171 kts 39°
2026-05-06 07:10 40.00865 32.88350 5520 ft 171 kts 34°
2026-05-06 07:10 40.01852 32.89224 5421 ft 171 kts 34°
2026-05-06 07:10 40.02821 32.90109 5201 ft 170 kts 36°
2026-05-06 07:11 40.03748 32.90985 4956 ft 157 kts 36°
2026-05-06 07:11 40.04597 32.91799 4736 ft 148 kts 36°
2026-05-06 07:11 40.05420 32.92589 4536 ft 147 kts 36°
2026-05-06 07:11 40.06240 32.93375 4354 ft 146 kts 36°
2026-05-06 07:12 40.07060 32.94167 4168 ft 146 kts 36°
2026-05-06 07:12 40.07873 32.94942 3987 ft 145 kts 36°
2026-05-06 07:12 40.08696 32.95726 3793 ft 145 kts 36°
2026-05-06 07:12 40.09505 32.96510 3592 ft 145 kts 37°
2026-05-06 07:13 40.10309 32.97278 3406 ft 144 kts 36°
2026-05-06 07:13 40.11117 32.98044 3220 ft 143 kts 36°
2026-05-06 07:13 40.11911 32.98790 3122 ft 134 kts 36°
2026-05-06 07:13 40.12535 32.99392 3127 ft 87 kts 36°
2026-05-06 07:14 40.12884 32.99727 3129 ft 37 kts 39°
2026-05-06 07:14 40.13023 32.99923 3131 ft 26 kts 58°
2026-05-06 07:14 40.13091 33.00116 3137 ft 13 kts 66°
2026-05-06 07:14 40.13071 33.00179 3141 ft 6 kts 169°
2026-05-06 07:15 40.13031 33.00167 3141 ft 5 kts 211°
2026-05-06 07:15 40.12996 33.00137 3140 ft 6 kts 217°
2026-05-06 07:15 40.12947 33.00090 3139 ft 11 kts 216°
2026-05-06 07:15 40.12865 33.00013 3136 ft 17 kts 216°
2026-05-06 07:16 40.12760 32.99912 3135 ft 18 kts 215°
2026-05-06 07:16 40.12665 32.99823 3135 ft 16 kts 216°
2026-05-06 07:16 40.12580 32.99741 3135 ft 14 kts 216°
2026-05-06 07:16 40.12501 32.99667 3135 ft 13 kts 216°
2026-05-06 07:17 40.12422 32.99591 3136 ft 15 kts 217°
2026-05-06 07:17 40.12326 32.99499 3132 ft 18 kts 214°
2026-05-06 07:17 40.12229 32.99407 3132 ft 16 kts 217°
2026-05-06 07:17 40.12134 32.99313 3129 ft 16 kts 217°
2026-05-06 07:18 40.12046 32.99232 3129 ft 14 kts 215°
2026-05-06 07:18 40.11965 32.99154 3129 ft 14 kts 217°
2026-05-06 07:18 40.11884 32.99077 3127 ft 14 kts 216°
2026-05-06 07:18 40.11800 32.99054 3127 ft 12 kts 135°
2026-05-06 07:19 40.11740 32.99118 3128 ft 10 kts 163°
2026-05-06 07:19 40.11681 32.99102 3128 ft 9 kts 231°
2026-05-06 07:19 40.11642 32.99036 3127 ft 9 kts 206°
2026-05-06 07:19 40.11599 32.99057 3127 ft 4 kts 144°
2026-05-06 07:20 40.11589 32.99066 3127 ft 0 kts 144°
2026-05-06 07:20 40.11588 32.99067 3127 ft 0 kts 144°
2026-05-06 07:20 40.11585 32.99069 3127 ft 0 kts 144°